Tracking 19564 objects as of 20-Mar-2019
HD Live streaming from Space Station
objects crossing your sky now

FENGYUN 1C DEB

Track FENGYUN 1C DEB now!
10-day predictions


NORAD ID: 32095
Int'l Code: 1999-025CQM
Perigee: 797.1 km
Apogee: 912.7 km
Inclination: 98.9 °
Period: 101.9 minutes
Semi major axis: 7225 km
RCS: 0.0116 m2 (small)
Launch date: May 10, 1999
Source: People's Republic of China (PRC)
Launch site: Taiyaun Space Center, China (TSC)

Note: This is SATELLITE DEBRIS
aabbcc
Your satellite tracking list
Your tracking list is empty




NASA's NSSDC Master Catalog

Two Line Element Set (TLE):
1 32095U 99025CQM 19076.26726380  .00000085  00000-0  67060-4 0  9997
2 32095  98.8861 109.0721 0080024 270.3177  88.8826 14.13405943601373
Source of the keplerian elements: AFSPC